User: anonymous   Login
Location: Unspecified
(0.0000°N, 0.0000°E)
Time: 12:36:21
(UTC+00:00)
Language:

Oscar 10/S400 - Orbit

View from above orbital plane
View from above orbital plane
View from above satellite
View from above satellite

Ground track
Ground track

The orbit data is extracted from the following two-line orbital elements,

1 14129U 83058B   18171.57745862  .00000047  00000-0  00000+0 0  9993
2 14129  26.9598 335.4243 6024401  43.7423   1.8517  2.05868952235403
Epoch (UTC): 20 June 2018 13:51:32
Eccentricity: 0.6024401
inclination: 26.9598°
perigee height: 3999 km
apogee height: 35448 km
right ascension of ascending node: 335.4243°
argument of perigee: 43.7423°
revolutions per day: 2.05868952
mean anomaly at epoch: 1.8517°
orbit number at epoch: 23540

The dashed part of the orbit path shows where the satellite is in the earth's shadow,  

DLR